Weather History for PASA - October, 2012

Change the Weather History Date:

Wednesday, October 17, 2012

  Actual Average Record
Temperature  
Mean Temperature 28 °F -  
Max Temperature 30 °F 31 °F 42 °F (2004)
Min Temperature 26 °F 27 °F 15 °F (1996)
Degree Days  
Heating Degree Days 37    
Moisture  
Dew Point 17 °F    
Average Humidity 64    
Maximum Humidity 74    
Minimum Humidity 55    
Precipitation  
Precipitation 0.00 in - - ()
Sea Level Pressure  
Sea Level Pressure 30.37 in    
Wind  
Wind Speed 10 mph (North)    
Max Wind Speed 15 mph    
Max Gust Speed 20 mph    
Visibility 10 miles    
Events      
Averages and records for this station are not official NWS values.
T = Trace of Precipitation, MM = Missing Value Source: NWS Daily Summary

Daily Weather History Graph

Daily Weather History Graph

Search for Another Location

Airport or City:

Trip Planner

Search our weather history database for the weather conditions in past years. The results will help you decide how hot, cold, wet, or windy it might be!

Date:

Astronomy

Oct. 17, 2012 Rise Set
Actual Time 10:19 AM AKDT 7:53 PM AKDT
Civil Twilight 9:30 AM AKDT 8:42 PM AKDT
Nautical Twilight 8:36 AM AKDT 9:36 PM AKDT
Astronomical Twilight 7:41 AM AKDT 10:31 PM AKDT
Moon 2:26 PM AKDT (10/17) 8:21 PM AKDT (10/17)
Length of Visible Light 11h 11m
Length of Day
9h 34m
Waxing Crescent, 8% of the Moon is Illuminated
Oct 17
Waxing Crescent
Oct 21
First Quarter
Oct 29
Full
Nov 6
Last Quarter
Nov 13
New

Hourly Weather History & Observations

Time (AKDT) Temp. Windchill Dew Point Humidity Pressure Visibility Wind Dir Wind Speed Gust Speed Precip Events Conditions
12:16 AM 26.6 °F 17.5 °F 15.8 °F 64% 30.26 in 10.0 mi North 9.2 mph - N/A   Mostly Cloudy
12:36 AM 26.6 °F 16.8 °F 15.8 °F 64% 30.27 in 10.0 mi NNW 10.4 mph - N/A   Mostly Cloudy
12:56 AM 26.6 °F 17.5 °F 15.8 °F 64% 30.27 in 10.0 mi NW 9.2 mph - N/A   Mostly Cloudy
1:16 AM 26.6 °F 17.5 °F 15.8 °F 64% 30.27 in 10.0 mi NNW 9.2 mph - N/A   Mostly Cloudy
1:36 AM 26.6 °F 20.0 °F 15.8 °F 64% 30.27 in 10.0 mi NNW 5.8 mph - N/A   Scattered Clouds
1:56 AM 26.6 °F 18.2 °F 15.8 °F 64% 30.27 in 10.0 mi NNW 8.1 mph - N/A   Scattered Clouds
2:16 AM 26.6 °F 18.2 °F 15.8 °F 64% 30.28 in 10.0 mi NW 8.1 mph - N/A   Mostly Cloudy
2:36 AM 26.6 °F 17.5 °F 15.8 °F 64% 30.28 in 10.0 mi NW 9.2 mph - N/A   Mostly Cloudy
2:56 AM 26.6 °F 18.2 °F 15.8 °F 64% 30.29 in 10.0 mi NNW 8.1 mph - N/A   Mostly Cloudy
3:16 AM 26.6 °F 18.2 °F 15.8 °F 64% 30.29 in 10.0 mi North 8.1 mph - N/A   Scattered Clouds
3:36 AM 28.4 °F 19.1 °F 15.8 °F 59% 30.30 in 10.0 mi NNW 10.4 mph - N/A   Mostly Cloudy
3:56 AM 28.4 °F 20.4 °F 15.8 °F 59% 30.30 in 10.0 mi NW 8.1 mph - N/A   Overcast
4:16 AM 28.4 °F 19.1 °F 15.8 °F 59% 30.30 in 10.0 mi NNW 10.4 mph - N/A   Overcast
4:36 AM 28.4 °F 19.7 °F 15.8 °F 59% 30.31 in 10.0 mi NW 9.2 mph - N/A   Overcast
4:56 AM 26.6 °F 17.5 °F 17.6 °F 69% 30.31 in 10.0 mi North 9.2 mph - N/A   Mostly Cloudy
5:16 AM 26.6 °F 18.2 °F 17.6 °F 69% 30.31 in 10.0 mi NNW 8.1 mph - N/A   Overcast
5:36 AM 28.4 °F 20.4 °F 15.8 °F 59% 30.31 in 10.0 mi North 8.1 mph - N/A   Overcast
5:56 AM 28.4 °F 21.2 °F 14.0 °F 55% 30.31 in 10.0 mi NNW 6.9 mph - N/A   Overcast
6:16 AM 28.4 °F 19.1 °F 14.0 °F 55% 30.31 in 10.0 mi North 10.4 mph - N/A   Overcast
6:36 AM 26.6 °F 17.5 °F 15.8 °F 64% 30.31 in 10.0 mi NNW 9.2 mph - N/A   Overcast
6:56 AM 26.6 °F 16.8 °F 15.8 °F 64% 30.32 in 10.0 mi NNW 10.4 mph - N/A   Overcast
7:16 AM 26.6 °F 16.8 °F 15.8 °F 64% 30.32 in 10.0 mi North 10.4 mph - N/A   Overcast
7:36 AM 26.6 °F 16.8 °F 15.8 °F 64% 30.32 in 10.0 mi North 10.4 mph - N/A   Overcast
7:56 AM 26.6 °F 17.5 °F 15.8 °F 64% 30.33 in 10.0 mi NNW 9.2 mph - N/A   Mostly Cloudy
8:16 AM 26.6 °F 18.2 °F 15.8 °F 64% 30.34 in 10.0 mi NNW 8.1 mph - N/A   Mostly Cloudy
8:36 AM 26.6 °F 17.5 °F 15.8 °F 64% 30.34 in 10.0 mi NNW 9.2 mph - N/A   Overcast
8:56 AM 28.4 °F 18.5 °F 15.8 °F 59% 30.34 in 10.0 mi NW 11.5 mph - N/A   Mostly Cloudy
9:16 AM 28.4 °F 18.5 °F 17.6 °F 64% 30.34 in 10.0 mi NNW 11.5 mph - N/A   Scattered Clouds
9:36 AM 26.6 °F 16.8 °F 15.8 °F 64% 30.35 in 10.0 mi NNW 10.4 mph - N/A   Clear
9:56 AM 26.6 °F 16.2 °F 15.8 °F 64% 30.35 in 10.0 mi NNW 11.5 mph - N/A   Scattered Clouds
10:16 AM 26.6 °F 15.7 °F 15.8 °F 64% 30.35 in 10.0 mi North 12.7 mph - N/A   Scattered Clouds
10:36 AM 26.6 °F 16.2 °F 15.8 °F 64% 30.36 in 10.0 mi North 11.5 mph - N/A   Clear
10:56 AM 26.6 °F 17.5 °F 15.8 °F 64% 30.36 in 10.0 mi North 9.2 mph - N/A   Clear
11:16 AM 26.6 °F 16.8 °F 17.6 °F 69% 30.36 in 10.0 mi North 10.4 mph - N/A   Clear
11:36 AM 28.4 °F 19.1 °F 17.6 °F 64% 30.37 in 10.0 mi North 10.4 mph - N/A   Clear
11:56 AM 28.4 °F 19.7 °F 17.6 °F 64% 30.38 in 10.0 mi North 9.2 mph - N/A   Partly Cloudy
12:16 PM 28.4 °F 19.7 °F 15.8 °F 59% 30.38 in 10.0 mi North 9.2 mph - N/A   Scattered Clouds
12:36 PM 28.4 °F 20.4 °F 15.8 °F 59% 30.39 in 10.0 mi North 8.1 mph - N/A   Mostly Cloudy
12:56 PM 28.4 °F 19.7 °F 17.6 °F 64% 30.39 in 10.0 mi North 9.2 mph - N/A   Mostly Cloudy
1:16 PM 28.4 °F 19.7 °F 17.6 °F 64% 30.39 in 10.0 mi North 9.2 mph - N/A   Mostly Cloudy
2:16 PM 30.2 °F 21.9 °F 17.6 °F 60% 30.40 in 10.0 mi North 9.2 mph - N/A   Mostly Cloudy
2:36 PM 28.4 °F 19.7 °F 17.6 °F 64% 30.40 in 10.0 mi North 9.2 mph - N/A   Mostly Cloudy
2:56 PM 28.4 °F 19.7 °F 17.6 °F 64% 30.41 in 10.0 mi North 9.2 mph - N/A   Mostly Cloudy
3:16 PM 28.4 °F 20.4 °F 17.6 °F 64% 30.41 in 10.0 mi North 8.1 mph - N/A   Mostly Cloudy
3:36 PM 28.4 °F 19.7 °F 17.6 °F 64% 30.41 in 10.0 mi North 9.2 mph - N/A   Mostly Cloudy
3:56 PM 28.4 °F 19.1 °F 17.6 °F 64% 30.41 in 10.0 mi North 10.4 mph - N/A   Mostly Cloudy
4:16 PM 28.4 °F 19.1 °F 19.4 °F 69% 30.41 in 10.0 mi North 10.4 mph - N/A   Overcast
4:36 PM 28.4 °F 19.7 °F 19.4 °F 69% 30.41 in 10.0 mi North 9.2 mph - N/A   Overcast
4:56 PM 28.4 °F 18.5 °F 21.2 °F 74% 30.42 in 10.0 mi North 11.5 mph - N/A   Overcast
5:16 PM 28.4 °F 18.0 °F 19.4 °F 69% 30.42 in 10.0 mi North 12.7 mph - N/A   Mostly Cloudy
5:36 PM 28.4 °F 18.0 °F 19.4 °F 69% 30.42 in 10.0 mi North 12.7 mph - N/A   Overcast
5:56 PM 28.4 °F 18.0 °F 17.6 °F 64% 30.43 in 10.0 mi North 12.7 mph - N/A   Overcast
6:16 PM 28.4 °F 18.0 °F 17.6 °F 64% 30.43 in 10.0 mi NNW 12.7 mph - N/A   Mostly Cloudy
6:36 PM 28.4 °F 17.5 °F 17.6 °F 64% 30.43 in 10.0 mi North 13.8 mph 19.6 mph N/A   Overcast
6:56 PM 28.4 °F 17.5 °F 15.8 °F 59% 30.43 in 10.0 mi North 13.8 mph - N/A   Overcast
7:16 PM 28.4 °F 18.5 °F 17.6 °F 64% 30.43 in 10.0 mi North 11.5 mph - N/A   Scattered Clouds
7:36 PM 28.4 °F 17.0 °F 17.6 °F 64% 30.43 in 10.0 mi North 15.0 mph 19.6 mph N/A   Mostly Cloudy
7:56 PM 28.4 °F 17.5 °F 17.6 °F 64% 30.43 in 10.0 mi North 13.8 mph - N/A   Mostly Cloudy
8:16 PM 28.4 °F 18.5 °F 17.6 °F 64% 30.44 in 10.0 mi North 11.5 mph - N/A   Overcast
8:36 PM 28.4 °F 19.7 °F 17.6 °F 64% 30.44 in 10.0 mi North 9.2 mph 17.3 mph N/A   Overcast
8:56 PM 28.4 °F 18.5 °F 19.4 °F 69% 30.44 in 10.0 mi North 11.5 mph - N/A   Overcast
9:16 PM 28.4 °F 18.5 °F 19.4 °F 69% 30.44 in 10.0 mi North 11.5 mph - N/A   Overcast
9:36 PM 28.4 °F 17.0 °F 19.4 °F 69% 30.45 in 10.0 mi North 15.0 mph - N/A   Overcast
9:56 PM 28.4 °F 19.1 °F 17.6 °F 64% 30.45 in 10.0 mi North 10.4 mph - N/A   Mostly Cloudy
10:16 PM 28.4 °F 17.5 °F 17.6 °F 64% 30.45 in 10.0 mi North 13.8 mph - N/A   Overcast
10:36 PM 28.4 °F 17.5 °F 17.6 °F 64% 30.46 in 10.0 mi North 13.8 mph - N/A   Overcast
10:56 PM 28.4 °F 18.0 °F 15.8 °F 59% 30.45 in 10.0 mi North 12.7 mph 18.4 mph N/A   Overcast
11:16 PM 28.4 °F 18.5 °F 15.8 °F 59% 30.46 in 10.0 mi North 11.5 mph - N/A   Overcast
11:36 PM 28.4 °F 19.1 °F 15.8 °F 59% 30.46 in 10.0 mi North 10.4 mph - N/A   Overcast
11:56 PM 28.4 °F 18.5 °F 15.8 °F 59% 30.46 in 10.0 mi North 11.5 mph - N/A   Overcast